{"data":{"norad_id":82617,"epoch":"2026-09-18T03:57:40.601664Z","epoch_age_seconds":220092,"freshness":"STALE","line1":"1 82617U          26261.16505326  .00000301  00000+0  84833-4 0  9992","line2":"2 82617  74.0253  78.9892 0038902 312.6176  47.1705 14.49737230677316","mean_motion":14.4973723,"eccentricity":0.0038902,"inclination_deg":74.0253,"raan_deg":78.9892,"arg_perigee_deg":312.6176,"mean_anomaly_deg":47.1705,"bstar":8.4833e-5,"rev_number":67731,"period_min":99.328345178802,"perigee_km":698.86838682487,"apogee_km":754.14535800983,"semimajor_km":7104.6438724173,"source":"CELESTRAK","updated_at":"2026-09-20T09:00:32.437062Z"}}